Theta_e
323 323 321 324 321 319 326 330 326 328 328 331 331 332 335 336 338 340 338 338 333 332 328 325 322 320 322 329 332 333 333 333 334 333 330 327 328 330 324 323 328 322 314 313 313 313 314 315 316
323 322 322 323 321 325 326 327 327 328 330 330 332 334 336 335 336 338 339 338 337 332 328 323 317 316 317 325 331 333 334 332 330 333 330 328 327 329 326 327 326 317 313 313 312 313 313 313 313
325 323 322 322 322 325 326 326 327 328 331 331 332 336 336 336 336 337 337 337 336 332 324 320 314 313 313 317 323 330 330 328 327 328 329 329 326 329 327 324 324 317 313 313 313 313 313 313 316
329 323 322 321 324 324 324 326 328 328 329 330 332 333 335 336 336 336 337 337 335 331 325 317 314 318 315 313 315 318 322 325 329 329 328 327 323 326 327 321 314 313 313 314 315 315 315 315 316
328 324 322 323 324 323 321 329 329 326 328 330 331 333 334 336 335 336 336 336 335 332 327 315 320 328 324 318 317 317 325 327 327 328 328 327 323 327 322 313 313 313 314 315 315 315 315 315 316
326 324 322 325 325 321 320 326 329 327 327 328 333 333 333 334 335 335 335 335 335 333 328 315 325 330 326 321 316 311 314 322 325 320 324 327 323 319 313 312 313 314 315 315 316 315 315 315 316
325 326 324 325 326 321 321 323 325 326 328 327 331 334 333 332 334 335 334 334 334 333 329 315 324 330 326 324 314 311 311 310 314 311 310 317 321 313 313 313 313 314 315 317 317 316 317 317 318
321 325 327 324 326 327 323 325 326 327 327 327 328 333 332 333 334 335 333 333 331 332 329 318 319 328 328 323 316 314 314 316 313 311 311 311 311 312 312 313 314 315 316 318 318 318 317 317 318
321 323 326 326 327 325 324 323 324 326 327 328 328 333 333 332 333 334 333 333 331 332 331 321 315 320 325 324 316 314 314 314 313 312 312 312 312 312 312 313 314 316 317 318 319 317 317 318 318
324 325 325 322 318 318 323 323 324 325 328 329 328 331 333 332 333 333 333 334 332 331 331 325 315 315 316 319 316 313 312 313 313 313 313 314 314 313 313 314 315 316 318 319 319 319 318 317 317
323 328 323 321 319 318 321 323 324 323 325 327 328 330 332 333 333 333 333 333 332 331 331 330 319 319 314 313 314 314 314 313 313 314 315 316 316 315 315 315 315 316 318 318 319 319 319 318 318
324 327 324 319 317 318 318 321 323 323 323 325 327 325 330 332 334 333 333 333 332 332 332 331 325 322 317 313 313 314 316 318 316 317 316 317 316 317 317 317 317 317 317 318 318 319 319 318 319
326 327 321 322 318 316 317 318 321 322 323 323 326 329 324 332 333 333 332 332 332 330 332 331 329 321 318 314 315 315 316 317 318 319 318 317 318 318 318 319 319 319 319 319 319 320 320 319 320
327 327 323 321 318 315 315 317 318 320 321 325 327 329 325 328 333 333 333 332 331 327 329 331 331 324 318 319 318 317 317 317 318 318 318 318 319 319 320 320 320 320 319 319 320 320 320 320 320
325 325 320 319 322 315 314 317 315 319 320 326 329 329 326 324 333 332 332 332 331 328 324 332 332 330 320 319 319 321 319 319 319 319 319 320 320 321 321 321 321 321 319 319 320 319 320 320 320
324 322 326 322 318 316 314 324 322 320 318 329 329 328 326 323 330 333 332 332 331 330 324 325 332 331 326 322 320 320 320 320 320 320 320 321 321 321 321 321 322 322 320 319 319 320 320 320 320
321 324 325 323 317 313 315 323 321 322 319 320 328 328 328 327 330 333 334 333 330 330 326 319 322 330 327 326 322 320 319 318 319 320 320 320 321 321 322 322 323 323 323 320 320 321 320 320 320
325 328 323 325 319 314 313 314 315 319 317 319 321 326 328 329 328 327 331 333 331 331 329 323 317 320 326 326 323 320 320 319 319 319 319 319 320 321 322 323 324 324 324 323 322 321 320 320 320
323 326 327 321 318 315 315 314 315 317 315 316 318 319 324 328 326 327 327 333 334 333 331 327 321 319 317 321 323 319 317 318 318 319 319 319 320 321 323 324 325 323 322 324 323 321 321 320 319
325 328 326 321 317 317 318 317 316 317 316 316 317 318 318 325 328 328 329 332 335 334 333 331 326 320 316 316 317 320 317 316 317 318 318 319 320 321 322 324 325 324 323 323 323 322 321 320 319
330 329 328 323 318 319 319 322 319 319 320 322 322 321 321 319 326 328 329 330 331 332 331 332 330 323 317 316 317 317 318 318 318 319 319 320 321 321 322 325 326 325 323 321 321 321 320 320 319
330 328 330 320 324 327 320 328 321 322 321 321 322 322 321 320 318 326 327 328 328 326 325 329 330 328 321 318 318 318 318 318 318 318 320 320 321 322 323 325 327 325 324 322 322 321 321 321 320
329 320 320 320 315 319 317 320 318 317 322 322 322 323 324 320 320 319 324 324 323 326 324 325 328 328 326 322 319 318 319 319 319 320 320 321 322 323 325 325 327 326 324 324 322 322 321 321 322
314 317 318 316 319 326 318 321 320 319 319 321 320 322 324 324 322 319 318 321 322 324 325 325 327 328 329 327 325 323 320 319 319 320 320 321 324 326 326 327 328 326 324 324 323 323 322 323 323
318 324 324 325 326 327 316 318 323 318 317 317 318 319 323 323 323 323 318 318 322 323 323 324 325 325 329 329 329 328 327 326 325 324 323 324 326 327 326 327 328 326 325 325 323 323 322 322 322
320 325 325 326 323 320 310 320 318 316 319 319 317 319 317 316 319 322 322 321 318 319 322 324 324 324 326 328 326 327 328 328 328 327 327 327 327 327 327 326 326 327 326 326 323 323 322 322 321
318 323 316 311 301 313 313 313 312 313 313 312 311 313 314 315 315 319 322 321 318 317 319 322 322 322 325 326 327 329 329 329 327 327 328 328 327 327 327 327 327 327 328 327 326 323 323 323 322
319 316 320 316 314 316 315 314 315 312 313 311 310 311 313 313 313 315 318 318 317 316 316 318 322 322 321 323 326 327 329 329 329 330 328 327 327 327 327 328 329 329 328 330 328 326 324 323 323
317 320 317 315 314 315 316 315 310 313 310 310 310 312 313 313 312 312 312 312 312 313 314 315 316 317 319 321 322 324 325 326 327 328 327 326 327 328 328 328 329 330 326 327 329 329 327 325 324
315 320 317 322 318 314 314 314 310 309 307 310 309 310 310 310 310 310 310 310 310 310 310 310 310 311 311 311 312 313 315 320 324 325 325 326 331 329 328 327 328 328 327 328 328 328 328 326 325
Wind_Speed
11 12 10 4 4 5 3 1 4 5 4 5 10 9 11 9 5 7 14 12 15 16 12 12 11 11 12 13 13 13 12 9 7 8 11 13 16 15 12 17 20 18 17 17 18 18 18 19 19
11 12 4 3 4 2 4 1 6 4 8 12 13 16 8 3 12 18 16 11 10 14 12 12 12 12 12 14 14 12 11 9 11 12 11 14 16 16 15 18 18 17 18 19 18 18 18 17 18
12 8 4 2 2 2 3 4 7 11 10 8 6 12 5 5 19 17 15 13 17 14 13 12 13 13 12 12 13 12 8 7 13 17 13 15 18 18 15 14 17 17 18 19 18 18 18 19 19
12 1 3 2 3 5 5 7 16 6 5 5 14 9 8 8 13 15 18 13 12 11 12 13 13 13 13 13 11 10 13 15 21 19 15 14 16 17 14 13 15 17 17 18 18 18 19 19 18
7 5 1 1 5 3 5 18 13 5 8 4 8 5 8 10 12 24 19 17 14 14 12 13 14 13 12 13 13 13 17 16 17 19 18 15 15 16 14 16 16 16 17 17 18 18 19 19 18
6 3 2 3 6 3 1 11 13 11 9 8 9 9 7 11 15 25 21 17 14 14 14 14 16 14 12 12 11 9 12 17 15 16 17 16 12 14 13 15 15 15 16 17 17 18 18 17 17
2 1 3 4 2 3 4 7 5 11 12 5 14 5 9 13 20 21 18 15 14 13 13 15 16 14 12 11 10 9 9 11 12 12 12 15 15 14 14 14 13 14 15 16 16 16 16 16 15
5 1 3 4 2 2 5 7 5 11 4 11 4 6 7 22 24 22 19 16 13 12 12 14 16 15 14 12 11 10 11 12 14 12 11 12 13 15 14 12 12 13 14 14 14 15 15 14 12
3 1 3 4 3 3 9 3 7 7 13 6 3 4 3 30 28 25 22 18 18 13 11 14 16 15 13 12 12 11 11 13 12 13 12 12 13 13 13 12 12 12 12 12 12 12 12 11 10
5 3 5 6 4 2 6 6 9 6 12 5 4 4 10 32 31 29 27 23 20 18 14 15 16 16 15 13 13 12 12 13 12 12 12 12 12 11 11 10 10 11 10 10 9 8 6 7 7
5 5 5 1 5 5 4 6 6 9 2 12 15 15 20 33 30 30 27 26 23 21 17 14 15 14 14 15 15 14 14 14 13 11 10 10 11 10 10 9 9 9 8 7 6 6 5 5 7
3 11 5 9 5 2 4 1 6 11 4 9 15 14 23 30 33 33 31 27 26 25 20 17 17 15 15 16 15 14 14 14 14 12 10 9 9 9 9 8 7 7 7 6 6 5 4 4 5
3 5 11 10 8 5 6 5 4 9 8 2 18 18 22 28 30 29 31 31 29 27 25 21 20 20 17 18 17 16 14 13 12 12 10 10 9 8 8 7 5 5 5 4 4 5 4 4 4
11 16 6 9 2 6 4 4 4 7 7 13 21 21 21 25 30 32 32 29 27 30 28 24 23 22 20 19 18 17 16 15 13 11 10 10 9 7 5 5 5 4 4 4 4 3 3 4 2
3 5 5 7 11 4 4 6 6 13 14 22 26 21 21 23 27 28 32 31 28 29 30 30 27 24 24 21 20 18 16 16 14 13 13 12 10 9 8 7 6 6 5 5 5 5 4 4 2
6 5 3 5 11 8 10 14 10 15 16 25 23 21 20 22 28 27 27 31 29 26 33 31 30 28 26 24 23 21 18 17 16 16 15 14 11 10 10 10 9 8 7 8 8 7 5 3 2
4 4 5 3 18 4 8 7 15 16 24 25 25 23 22 20 27 30 30 30 32 29 31 33 32 33 29 27 26 24 21 20 18 18 17 16 15 14 14 12 11 10 10 11 11 9 6 4 4
6 3 6 8 7 5 7 8 6 13 19 22 24 28 28 25 27 30 33 31 33 32 30 32 31 33 31 29 29 27 24 23 22 22 20 18 19 18 17 15 14 13 15 15 14 11 9 7 4
12 8 10 9 8 7 15 6 12 14 15 19 22 19 30 33 27 24 27 34 31 32 33 34 33 32 35 34 32 32 30 28 26 26 24 22 21 20 19 17 15 14 15 15 16 13 12 10 8
8 14 8 3 8 9 6 14 8 14 15 21 22 23 23 34 34 28 26 33 34 36 34 36 36 34 35 35 33 34 32 31 28 27 26 25 24 23 21 21 19 16 12 15 18 17 15 12 11
10 12 7 5 5 1 3 6 8 9 26 30 32 32 29 29 35 33 31 32 35 38 39 40 38 36 35 35 34 34 34 32 32 31 30 30 28 26 24 22 21 20 17 16 17 17 15 15 15
16 7 5 7 12 4 6 5 5 12 15 20 34 35 37 34 31 36 36 37 37 36 36 39 40 38 37 36 37 38 38 39 37 34 32 31 31 30 27 25 25 24 23 22 20 19 19 20 20
6 7 8 4 4 4 3 1 7 4 9 18 26 31 38 37 36 33 38 37 36 34 35 39 40 40 39 39 40 39 40 39 37 36 34 32 33 33 31 29 29 27 27 26 26 24 25 26 26
11 7 8 5 2 4 8 7 5 5 6 4 14 29 40 38 37 36 35 38 37 36 34 36 39 41 41 41 42 42 41 41 40 40 38 37 35 34 33 32 32 31 28 28 30 29 29 30 28
7 11 3 3 4 7 2 5 9 7 6 4 5 9 27 36 38 40 41 36 38 37 35 35 37 40 41 40 41 42 42 41 42 41 41 40 38 37 36 34 35 35 33 30 29 29 28 26 27
12 9 5 7 5 4 1 7 6 9 21 16 11 15 10 9 19 37 40 40 42 40 38 36 36 37 40 41 42 42 42 42 42 41 42 43 42 40 37 35 35 37 36 35 33 33 31 28 27
5 6 4 6 2 3 4 6 8 9 8 7 9 6 11 11 9 15 30 33 37 38 38 38 36 35 39 42 42 42 42 43 43 43 43 43 43 42 41 38 36 36 39 40 39 39 36 36 33
13 11 5 1 5 3 4 4 6 5 7 7 6 13 12 10 10 10 15 23 28 30 32 33 34 33 33 36 39 41 43 44 45 45 45 44 44 43 43 41 38 38 39 41 44 45 43 41 39
5 11 4 6 5 5 3 6 7 10 7 8 9 10 13 12 10 12 14 15 17 22 27 29 31 32 34 35 35 38 41 43 45 46 47 46 45 44 42 40 39 41 39 38 41 47 49 47 44
4 13 4 7 6 3 3 5 4 6 8 10 11 12 12 10 12 13 10 7 7 10 14 18 20 23 23 26 31 35 38 40 43 45 46 45 44 41 41 40 40 40 41 39 39 38 47 50 47
Wind_Direction
328 337 325 341 35 64 287 337 130 105 58 79 79 70 108 62 49 125 155 162 153 155 150 139 129 131 138 136 124 122 125 121 115 107 99 96 101 105 108 93 92 91 89 86 84 85 90 93 95
325 337 342 323 87 37 287 172 94 91 121 102 75 126 44 71 109 130 144 171 160 159 150 134 128 131 145 144 138 133 126 130 119 127 113 105 111 100 97 99 94 91 89 86 86 88 90 95 100
319 324 324 81 132 203 174 114 129 118 118 117 101 80 77 95 134 136 156 177 170 153 144 135 125 129 138 148 153 163 173 128 112 118 112 109 123 113 106 102 99 93 91 90 89 91 96 99 99
330 6 273 72 260 293 136 152 126 110 113 116 129 71 86 140 135 148 163 173 163 145 142 132 130 132 133 136 152 164 125 119 122 125 124 118 127 117 115 112 99 99 96 95 94 94 93 95 97
316 275 16 287 278 230 113 145 141 128 147 155 123 136 105 136 134 157 169 174 171 156 147 141 138 132 129 129 129 125 121 125 132 132 129 119 123 123 115 103 101 103 99 98 95 92 93 94 95
299 279 50 232 260 157 54 140 147 149 158 128 101 112 141 167 152 160 174 177 173 164 155 151 142 142 130 117 134 143 136 135 132 133 131 120 112 129 117 106 104 103 101 98 96 95 95 96 93
307 20 246 269 287 222 167 155 145 144 136 151 150 97 140 161 161 169 179 175 178 169 165 156 152 150 141 128 132 135 137 137 128 123 135 132 131 123 122 113 109 106 102 101 99 98 97 95 92
299 259 289 278 258 309 159 136 100 138 113 134 103 160 169 166 166 177 177 183 178 179 174 165 165 160 152 144 139 138 135 133 134 128 120 126 120 114 118 116 112 111 108 105 105 102 100 96 91
335 312 235 253 293 221 162 120 75 107 124 102 110 162 188 162 167 176 177 178 179 188 186 175 175 169 165 158 149 151 145 139 138 134 137 132 123 122 126 122 118 113 110 111 108 107 106 102 95
194 214 227 15 11 335 170 137 137 130 128 98 159 149 149 164 172 181 186 181 185 185 193 182 181 179 179 174 162 157 154 150 147 146 149 139 129 132 130 126 120 116 117 120 122 115 107 97 96
195 195 10 20 301 22 274 131 164 144 226 194 195 174 165 169 176 180 189 188 184 184 195 191 192 179 180 182 175 170 164 164 164 162 158 141 133 133 131 133 136 134 132 136 128 120 108 92 94
179 256 280 309 303 316 331 19 182 201 200 224 224 189 171 176 184 183 192 193 187 184 191 195 196 198 177 184 182 180 178 175 176 176 164 162 154 152 151 142 140 144 156 162 147 134 123 116 110
217 177 211 240 293 296 291 240 202 231 227 201 187 181 181 181 190 190 195 201 201 196 186 198 203 203 192 187 185 188 188 185 184 179 169 172 175 171 162 161 157 166 170 169 167 163 159 142 128
220 210 210 225 240 290 289 268 197 238 218 186 187 189 190 192 191 196 198 205 203 203 195 194 209 204 200 197 196 194 194 192 195 185 185 187 185 184 181 185 194 192 199 207 198 192 175 150 121
192 141 181 206 217 270 243 280 220 217 185 178 185 193 196 199 196 200 200 207 209 204 201 198 206 209 204 200 204 207 202 201 198 195 200 203 196 199 203 212 216 216 221 220 211 199 182 171 143
144 124 162 205 184 213 188 242 219 231 198 186 193 198 205 206 200 202 206 209 214 213 207 203 206 209 208 203 206 211 213 212 209 205 207 213 215 217 222 228 232 230 225 215 207 198 195 196 202
193 156 198 256 203 139 194 237 238 232 218 196 195 205 213 210 204 204 215 214 216 218 212 213 212 213 208 208 210 215 218 218 220 221 218 220 227 229 233 235 239 239 231 225 219 209 208 213 232
152 193 191 213 203 193 215 242 281 218 192 199 203 209 213 215 217 212 210 214 216 222 220 221 218 220 218 215 212 219 222 223 225 228 229 227 230 233 235 239 241 245 240 230 221 212 205 207 212
166 196 196 206 188 159 215 217 237 239 218 218 220 220 217 218 226 223 212 210 216 225 224 224 219 222 223 221 212 217 223 224 226 229 233 233 233 236 239 243 243 251 251 236 222 221 217 212 223
197 208 210 24 158 182 208 244 245 234 220 216 217 225 226 219 217 218 215 210 213 224 227 228 226 223 224 224 223 221 226 232 234 233 236 239 240 239 240 242 244 252 257 233 222 227 228 225 234
223 205 230 160 137 349 65 285 236 241 237 235 234 236 236 221 216 213 213 217 219 223 229 228 227 225 225 226 226 226 228 231 232 232 236 239 241 243 243 242 244 244 240 242 234 231 233 236 238
216 179 234 185 146 194 163 268 256 219 224 222 229 229 230 228 218 215 215 218 224 228 227 227 230 228 228 227 227 228 228 230 234 237 240 243 245 248 245 242 243 243 244 235 242 235 239 246 244
214 138 139 199 107 119 210 185 266 227 237 232 233 226 229 226 220 219 218 227 234 231 230 228 230 231 231 231 233 233 234 238 242 243 244 245 246 248 250 244 241 241 241 244 240 242 247 252 249
149 99 52 29 86 244 187 176 261 216 214 223 225 225 231 231 227 224 227 231 234 235 233 231 231 234 234 233 235 236 237 240 241 244 246 246 247 248 249 245 241 243 241 241 241 242 245 250 255
135 164 124 186 196 234 232 186 237 229 227 177 209 242 238 238 238 230 226 227 230 235 237 236 234 235 235 237 239 242 243 244 248 250 252 251 251 249 248 247 243 242 243 242 239 241 248 250 250
177 175 155 192 186 196 305 221 242 233 252 261 239 252 226 215 234 235 235 235 233 237 239 238 236 237 238 240 243 245 246 247 250 252 254 255 257 259 259 257 252 247 246 244 240 241 244 244 250
180 171 136 100 27 88 214 286 298 257 255 247 233 227 211 229 234 232 229 236 236 236 240 243 242 243 241 243 245 247 250 252 254 256 258 260 262 263 263 260 256 254 249 246 243 242 243 246 242
178 152 166 131 143 221 257 261 236 254 223 229 231 221 210 207 197 203 213 224 229 236 237 241 244 248 251 252 250 249 251 255 258 259 260 263 265 266 268 266 262 258 254 250 248 247 246 247 249
162 191 187 121 159 161 154 253 218 220 177 175 197 196 195 201 204 207 213 223 231 232 229 232 237 241 244 247 250 251 252 253 255 258 262 264 265 266 266 266 261 257 263 256 254 252 249 249 249
158 185 158 177 211 205 140 268 248 197 178 163 152 142 152 170 158 134 125 152 185 211 221 229 233 239 246 250 250 250 248 248 250 253 256 260 258 257 260 260 261 263 263 261 263 262 257 249 248